Regional Weather Roundup
Issued by NWS

Home | Current Version | Previous Version | Graphics & Text | Print | Product List | Glossary On
Versions: 1 2 3 4 5 6 7 8 9 10 11 12 13 14 15 16 17 18 19 20 21 22 23 24 25 26 27 28 29 30 31 32 33 34 35 36 37 38 39 40 41 42 43 44 45 46 47 48 49 50
000
ASUS45 KTFX 300210
RWRMT
MONTANA REGIONAL WEATHER ROUNDUP
NATIONAL WEATHER SERVICE GREAT FALLS MT
800 PM MDT FRI JUL 29 2016

NOTE: "FAIR" INDICATES FEW OR NO CLOUDS BELOW 12000 FEET WITH NO
SIGNIFICANT WEATHER AND/OR OBSTRUCTIONS TO VISIBILITY.

MTZ001>007-043-300300-
WEST OF THE DIVIDE

CITY           SKY/WX    TMP DP  RH WIND       PRES   REMARKS
KALISPELL      MOSUNNY   85  51  31 S9        29.88F
MISSOULA       SUNNY     88  46  23 W7        29.89F
BUTTE          PTCLDY    83  40  21 NW3       30.05F
MULLAN PASS    SUNNY     74  45  35 VRB3      30.12F
DEER LODGE       N/A     82  45  26 NW6       30.02S
EUREKA           N/A     91  46  21 W8        29.85F
HAMILTON         N/A     84  50  30 NW6       29.91F
LIBBY            N/A     93  45  18 CALM      29.85S
PLAINS           N/A     94  49  21 W2        29.86F HX  90
RONAN            N/A     87  50  27 N3        29.95F
$$

MTZ008-052>055-300300-
SOUTHWEST MONTANA

CITY           SKY/WX    TMP DP  RH WIND       PRES   REMARKS
BOZEMAN        CLEAR     84  50  30 CALM      29.98F
DILLON         CLEAR     81  48  31 NE10      29.99F
W YELLOWSTONE  CLEAR     79  30  17 N5        30.13F
ENNIS          CLEAR     82  39  21 N8        30.06F
THREE FORKS      N/A     86  86 100 CALM      29.97F HX 112
TWIN BRIDGES     N/A     87  40  19 N10       29.98F
$$

MTZ009-010-012-014-046-048-049-054-300300-
EAST SLOPES AND CENTRAL MONTANA

CITY           SKY/WX    TMP DP  RH WIND       PRES   REMARKS
CUT BANK         N/A     80  50  34 SE8       29.97F
GREAT FALLS    CLEAR     83  45  26 E10       29.96F
MALMSTROM AFB  CLEAR     82  45  27 E13       29.96F
HELENA         MOCLDY    87  44  22 N3        29.92F
CHOTEAU          N/A     82  46  28 E8        30.00F
CONRAD           N/A     81  54  39 N3        30.01F
$$

MTZ011-013-016-021-045-047-050-051-300300-
NORTH CENTRAL MONTANA

CITY           SKY/WX    TMP DP  RH WIND       PRES   REMARKS
HAVRE          CLEAR     82  53  36 E6        29.92F
LEWISTOWN      CLEAR     79  53  40 N5        30.03F
N BAR RANCH      N/A     75  50  41 E5        30.07S
CHINOOK          N/A     84  55  37 CALM      29.93S
$$

MTZ017>020-022>027-061-062-300300-
NORTHEAST MONTANA

CITY           SKY/WX    TMP DP  RH WIND       PRES   REMARKS
GLASGOW        CLEAR     76  57  51 E6        29.94S
JORDAN           N/A     81  57  43 NE3       29.95F
SIDNEY         CLEAR     77  52  41 E3        29.96S
WOLF POINT     PTCLDY    79  53  40 CALM      29.95F
PLENTYWOOD       N/A     75  57  53 CALM      29.97S
POPLAR           N/A     79  52  38 CALM      29.95F
SCOBEY           N/A     72  49  44 CALM      29.97F
$$

MTZ028>42-056>058-300300-
SOUTHCENTRAL AND SOUTHEAST MONTANA

CITY           SKY/WX    TMP DP  RH WIND       PRES   REMARKS
BAKER          CLEAR     78  56  46 NE7       29.99S
BILLINGS       PTCLDY    84  48  28 E8        29.98S
LIVINGSTON     CLEAR     81  47  30 E16       30.01S
MILES CITY     CLEAR     79  55  43 NE8       29.95F
FORSYTH          N/A     81  55  41 E10       29.95R
LAUREL           N/A     82  49  31 N5        29.98
ROUNDUP          N/A     81  50  33 CALM      29.92S
$$

REGIONAL REPORTS...DAKOTAS

CITY           SKY/WX    TMP DP  RH WIND       PRES   REMARKS
WILLISTON      CLEAR     77  50  38 E6        29.96F
MINOT          CLOUDY    78  60  53 SE3       29.96S
DICKINSON      CLEAR     70  59  68 E8        29.96S
BEACH            N/A     73  57  56 CALM      30.01S
CROSBY           N/A     68  55  64 CALM      29.98S
WATFORD CITY     N/A    N/A N/A N/A MISG        N/A
BISMARCK       PTCLDY    75  62  64 S8        29.98R
GRAND FORKS    PTCLDY    75  56  51 E5        29.98R
FARGO          CLEAR     72  62  71 CALM      29.99S
BUFFALO SD       N/A     79  52  38 E7        29.93R
RAPID CITY     CLEAR     73  56  54 SW8       30.02R
$$

REGIONAL REPORTS...WYOMING/IDAHO/WASHINGTON

CITY           SKY/WX    TMP DP  RH WIND       PRES   REMARKS
GILLETTE       CLEAR     78  46  32 NE10      30.03S
SHERIDAN       PTCLDY    83  47  28 E5        30.00R
BUFFALO WY     PTCLDY    76  48  37 W10       30.08R
CODY           CLEAR     72  57  60 N8        30.08S
YELLOWSTONE LA   N/A     71  37  28 CALM      30.24F
IDAHO FALLS    CLEAR     90  34  13 S5        29.95F
SALMON         CLEAR     90  46  22 N3        29.84F
BOISE          SUNNY     98  36  11 NW8       29.80F HX  93
SPOKANE        MOSUNNY   94  42  16 SW12      29.82F HX  90
$$

REGIONAL REPORTS...ALBERTA

CITY           SKY/WX    TMP DP  RH WIND       PRES   REMARKS
EDMONTON       SUNNY     75  55  50 E7        29.81F
CALGARY        MOSUNNY   75  55  50 SE18G25   29.91F
LETHBRIDGE     MOSUNNY   77  61  57 E7        29.91F
MEDICINE HAT   PTCLDY    86  55  35 S6        29.91F
WATERTON GATE    N/A     68  54  60 SW6         N/A
CARDSTON         N/A     75  57  53 SE8         N/A
ONEFOUR          N/A     81  43  26 N3          N/A
$$

REGIONAL REPORTS...SASKATCHEWAN

CITY           SKY/WX    TMP DP  RH WIND       PRES   REMARKS
SWIFT CURRENT  CLEAR     73  61  64 N5        29.95S
REGINA         MOCLDY    70  63  78 S6        29.92F
SASKATOON      SHOWER    68  63  83 W10G43    29.92R
CYPRESS HILLS    N/A     70  50  49 NE2         N/A
VAL MARIE        N/A     77  55  47 W2          N/A
ROCKGLEN         N/A     68  57  68 S7          N/A
$$



USA.gov is the U.S. government's official web portal to all federal, state and local government web resources and services.